Location: Béaulencourt
(50.0796°N, 2.8795°E)
Time: 14:58:15
(UTC+00:00)

Meteor 2-10 Rocket - Visible Passes

Search period start: 11 April 2026 00:00
Search period end: 21 April 2026 00:00
Orbit: 732 x 882 km, 81.2° (Epoch: 11 April)

Date Brightness Start Highest point End Pass type
(mag) Time Alt. Az. Time Alt. Az. Time Alt. Az.
11 Apr 5.5 03:50:20 10° N 03:54:50 32° ENE 03:59:22 10° SE visible
12 Apr 6.0 03:25:31 10° N 03:29:35 24° ENE 03:33:41 10° ESE visible
12 Apr 7.0 19:59:55 10° WNW 20:01:54 12° NW 20:03:51 10° NNW visible
13 Apr 6.4 03:00:50 10° NNE 03:04:18 18° ENE 03:07:47 10° ESE visible
13 Apr 6.7 19:33:23 10° W 19:36:31 16° WNW 19:39:38 10° NNW visible
14 Apr 6.6 02:36:23 10° NNE 02:38:57 14° ENE 02:41:32 10° E visible
14 Apr 3.6 04:16:46 10° N 04:21:49 82° ENE 04:26:57 10° SSE visible
15 Apr 6.9 02:12:55 10° NE 02:13:33 10° NE 02:14:11 10° ENE visible
15 Apr 4.2 03:51:43 10° N 03:56:43 59° ENE 04:01:47 10° SSE visible
16 Apr 4.8 03:26:45 10° N 03:31:33 43° ENE 03:36:27 10° SE visible
17 Apr 5.4 03:01:50 10° N 03:06:22 32° ENE 03:10:58 10° SE visible
18 Apr 5.8 02:37:01 10° N 02:41:07 24° ENE 02:45:17 10° ESE visible
19 Apr 6.2 02:12:19 10° NNE 02:15:49 18° ENE 02:19:22 10° ESE visible
19 Apr 3.4 03:53:21 10° NNW 03:58:25 75° W 04:03:36 10° S visible
20 Apr 6.4 01:47:52 10° NNE 01:50:29 14° ENE 01:53:07 10° E visible
20 Apr 3.6 03:28:15 10° N 03:33:21 81° ENE 03:38:36 10° SSE visible
